| time (UTC) | temp F | wind direction | speed MPH | gust MPH | rain 1hr in | rain 24hr in | rain mn in | humidity % | barometer mb |
| 20260505182720 | 43 | 0.0 | 0.0 | 0.00 | 0.09 | 0.05 | 47 | 1005.7 | |
| 20260505180720 | 44 | 0.0 | 0.0 | 0.00 | 0.09 | 0.05 | 46 | 1005.5 | |
| 20260505174720 | 45 | 0.0 | 0.0 | 0.00 | 0.09 | 0.05 | 45 | 1005.3 | |
| 20260505172719 | 46 | 0.0 | 0.0 | 0.00 | 0.09 | 0.05 | 46 | 1005.1 | |
| 20260505170719 | 46 | 0.0 | 0.0 | 0.00 | 0.09 | 0.05 | 46 | 1005.1 | |
| 20260505164720 | 47 | 0.0 | 0.0 | 0.00 | 0.09 | 0.05 | 43 | 1004.9 | |
| 20260505162720 | 47 | 0.0 | 0.0 | 0.00 | 0.09 | 0.05 | 42 | 1004.7 | |
| 20260505160720 | 47 | 0.0 | 0.0 | 0.00 | 0.09 | 0.05 | 40 | 1004.6 | |
| 20260505152719 | 47 | 0.0 | 0.0 | 0.00 | 0.09 | 0.05 | 39 | 1004.4 | |
| 20260505150719 | 48 | 0.0 | 0.0 | 0.00 | 0.09 | 0.05 | 38 | 1004.4 | |
| 20260505124719 | 48 | 0.0 | 0.0 | 0.00 | 0.09 | 0.05 | 41 | 1003.7 | |
| 20260505122719 | 47 | 0.0 | 0.0 | 0.00 | 0.09 | 0.05 | 42 | 1003.7 | |
| 20260505120719 | 49 | 0.0 | 0.0 | 0.00 | 0.09 | 0.05 | 44 | 1003.4 | |
| 20260505114719 | 48 | 0.0 | 0.0 | 0.00 | 0.09 | 0.05 | 44 | 1003.4 | |
| 20260505112719 | 48 | 0.0 | 0.0 | 0.00 | 0.09 | 0.05 | 42 | 1003.1 | |
| 20260505110718 | 47 | 0.0 | 0.0 | 0.00 | 0.09 | 0.05 | 42 | 1003.1 | |
| 20260505100718 | 47 | 0.0 | 0.0 | 0.00 | 0.09 | 0.05 | 48 | 1002.4 | |
| 20260505094718 | 46 | 0.0 | 0.0 | 0.00 | 0.09 | 0.05 | 60 | 1002.3 | |
| 20260505092718 | 43 | 0.0 | 0.0 | 0.00 | 0.09 | 0.05 | 72 | 1002.5 | |
| 20260505090718 | 45 | 0.0 | 0.0 | 0.00 | 0.09 | 0.05 | 65 | 1002.1 | |
| 20260505084719 | 44 | 0.0 | 0.0 | 0.00 | 0.09 | 0.05 | 70 | 1002.0 | |
| 20260505082718 | 42 | 0.0 | 0.0 | 0.00 | 0.09 | 0.05 | 73 | 1002.0 | |
| 20260505080718 | 41 | 0.0 | 0.0 | 0.00 | 0.09 | 0.05 | 77 | 1001.7 | |
| 20260505074718 | 40 | 0.0 | 0.0 | 0.00 | 0.09 | 0.05 | 83 | 1001.7 | |
| 20260505072718 | 40 | 0.0 | 0.0 | 0.00 | 0.09 | 0.05 | 82 | 1001.3 | |
| 20260505070717 | 40 | 0.0 | 0.0 | 0.00 | 0.09 | 0.05 | 86 | 1001.0 | |
| 20260505064717 | 40 | 0.0 | 0.0 | 0.00 | 0.09 | 0.05 | 89 | 1000.6 | |
| 20260505062717 | 39 | 0.0 | 0.0 | 0.00 | 0.09 | 0.05 | 89 | 1000.4 | |
| 20260505060718 | 38 | 0.0 | 0.0 | 0.00 | 0.09 | 0.05 | 91 | 1000.3 | |
| 20260505054717 | 38 | 0.0 | 0.0 | 0.00 | 0.09 | 0.05 | 91 | 1000.1 | |
| 20260505052717 | 38 | 0.0 | 0.0 | 0.00 | 0.09 | 0.05 | 91 | 1000.1 | |
| 20260505050717 | 38 | 0.0 | 0.0 | 0.00 | 0.09 | 0.05 | 91 | 999.7 | |
| 20260505040717 | 40 | 0.0 | 0.0 | 0.04 | 0.09 | 0.04 | 94 | 999.1 | |
| 20260505034717 | 41 | 0.0 | 0.0 | 0.01 | 0.06 | 0.01 | 95 | 999.2 | |
| 20260505032717 | 41 | 0.0 | 0.0 | 0.01 | 0.06 | 0.01 | 94 | 999.1 | |
| 20260505030717 | 42 | 0.0 | 0.0 | 0.01 | 0.06 | 0.01 | 95 | 999.1 | |
| 20260505024717 | 42 | 0.0 | 0.0 | 0.00 | 0.05 | 0.00 | 97 | 999.3 | |
| 20260505022716 | 42 | 0.0 | 0.0 | 0.00 | 0.05 | 0.00 | 96 | 998.9 | |
| 20260505020717 | 42 | 0.0 | 0.0 | 0.00 | 0.05 | 0.00 | 96 | 998.9 | |
| 20260505014716 | 42 | 0.0 | 0.0 | 0.00 | 0.05 | 0.00 | 96 | 999.0 | |
| 20260505012716 | 42 | 0.0 | 0.0 | 0.00 | 0.05 | 0.00 | 95 | 999.7 | |
| 20260505010717 | 43 | 0.0 | 0.0 | 0.00 | 0.05 | 0.00 | 93 | 1000.0 | |
| 20260505004716 | 42 | 0.0 | 0.0 | 0.00 | 0.05 | 0.00 | 94 | 1000.3 | |
| 20260505002716 | 42 | 0.0 | 0.0 | 0.00 | 0.05 | 0.00 | 94 | 1000.0 | |
| 20260505000716 | 43 | 0.0 | 0.0 | 0.00 | 0.05 | 0.00 | 94 | 1000.1 | |
| 20260504234716 | 42 | 0.0 | 0.0 | 0.00 | 0.05 | 0.00 | 96 | 1000.3 | |
| 20260504232716 | 43 | 0.0 | 0.0 | 0.00 | 0.05 | 0.00 | 95 | 1000.0 | |
| 20260504230716 | 44 | 0.0 | 0.0 | 0.00 | 0.05 | 0.00 | 94 | 1000.0 | |
| 20260504224716 | 44 | 0.0 | 0.0 | 0.00 | 0.05 | 0.00 | 93 | 1000.2 | |
| 20260504222716 | 44 | 0.0 | 0.0 | 0.00 | 0.05 | 0.00 | 93 | 1000.3 | |
| 20260504220716 | 45 | 0.0 | 0.0 | 0.00 | 0.05 | 0.00 | 92 | 1000.3 | |
| 20260504214716 | 46 | 0.0 | 0.0 | 0.03 | 0.05 | 0.00 | 92 | 1000.2 | |
| 20260504212716 | 46 | 0.0 | 0.0 | 0.03 | 0.05 | 0.00 | 93 | 1000.2 | |
| 20260504210716 | 46 | 0.0 | 0.0 | 0.03 | 0.05 | 0.00 | 92 | 1000.2 | |
| 20260504204715 | 46 | 0.0 | 0.0 | 0.02 | 0.02 | 0.02 | 90 | 1000.2 | |
| 20260504202716 | 46 | 0.0 | 0.0 | 0.02 | 0.02 | 0.02 | 90 | 1000.1 | |
| 20260504200716 | 47 | 0.0 | 0.0 | 0.02 | 0.02 | 0.02 | 85 | 1000.1 | |
| 20260504194715 | 46 | 0.0 | 0.0 | 0.00 | 0.00 | 0.00 | 87 | 1000.1 | |
| 20260504192715 | 47 | 0.0 | 0.0 | 0.00 | 0.00 | 0.00 | 83 | 1000.1 | |
| 20260504190716 | 48 | 0.0 | 0.0 | 0.00 | 0.00 | 0.00 | 75 | 1000.0 | |
| 20260504184715 | 48 | 0.0 | 0.0 | 0.00 | 0.00 | 0.00 | 74 | 1000.1 |